Tracking 18984 objects as of 24-Feb-2018
HD Live streaming from Space Station
objects crossing your sky now

FENGYUN 1C DEB

Track FENGYUN 1C DEB now!
10-day predictions


NORAD ID: 30092
Int'l Code: 1999-025QV
Perigee: 727.9 km
Apogee: 861.1 km
Inclination: 98.7 °
Period: 100.6 minutes
Semi major axis: 7165 km
RCS: 0.046 m2 (small)
Launch date: May 10, 1999
Source: People's Republic of China (PRC)
Launch site: Taiyaun Space Center, China (TSC)

Note: This is SATELLITE DEBRIS
aabbcc
Your satellite tracking list
Your tracking list is empty




NASA's NSSDC Master Catalog

Two Line Element Set (TLE):
1 30092U 99025QV  18054.28348009  .00000200  00000-0  88474-4 0  9998
2 30092  98.6865 154.1479 0092971 342.2259  81.6291 14.31304302579441
Source of the keplerian elements: AFSPC